User: anonymous   Login
Location: Unspecified
(0.0000°N, 0.0000°E)
Time: 00:12:03
(UTC+00:00)
Language:

TBA - TO BE ASSIGNED - Orbit

View from above orbital plane
View from above orbital plane
View from above satellite
View from above satellite

Ground track
Ground track

The orbit is defined by the following mean orbital elements,

1 68806U          26145.56400672 +.00000000 +00000-0 +14305-2 0 00004
2 68806  97.2847 352.2215 0001311  87.5854 272.5561 15.75263415    07
Epoch (UTC): 25 May 2026 13:32:10
Eccentricity: 0.0001311
inclination: 97.2847°
perigee height: 343 km
apogee height: 345 km
right ascension of ascending node: 352.2215°
argument of perigee: 87.5854°
revolutions per day: 15.75263415
mean anomaly at epoch: 272.5561°

The dashed part of the orbit path shows where the satellite is in the earth's shadow,  

DLR